| time (UTC) | temp F | wind direction | speed MPH | gust MPH | rain 1hr in | rain 24hr in | rain mn in | humidity % | barometer mb |
| 20260504173231 | 53 | 41 | 2.0 | 12.0 | 0.38 | 1.31 | 1.25 | 94 | 1011.6 |
| 20260504172735 | 53 | 49 | 2.0 | 10.0 | 0.36 | 1.30 | 1.24 | 94 | 1011.4 |
| 20260504172233 | 54 | 351 | 3.0 | 10.0 | 0.35 | 1.28 | 1.22 | 94 | 1011.4 |
| 20260504171730 | 55 | 348 | 2.0 | 5.0 | 0.33 | 1.27 | 1.20 | 94 | 1011.6 |
| 20260504171231 | 56 | 55 | 2.0 | 5.0 | 0.29 | 1.23 | 1.17 | 94 | 1011.6 |
| 20260504170730 | 56 | 86 | 0.0 | 5.0 | 0.22 | 1.16 | 1.09 | 95 | 1011.6 |
| 20260504170244 | 56 | 243 | 0.0 | 1.0 | 0.16 | 1.09 | 1.04 | 95 | 1011.3 |
| 20260504160230 | 57 | 288 | 0.0 | 3.0 | 0.02 | 0.94 | 0.87 | 95 | 1010.4 |
| 20260504150727 | 56 | 303 | 0.0 | 1.0 | 0.02 | 0.91 | 0.85 | 95 | 1010.3 |
| 20260504150226 | 56 | 303 | 0.0 | 4.0 | 0.04 | 0.91 | 0.85 | 94 | 1010.3 |
| 20260504141229 | 54 | 268 | 3.0 | 7.0 | 0.83 | 0.90 | 0.83 | 93 | 1009.8 |
| 20260504140725 | 54 | 336 | 1.0 | 7.0 | 0.83 | 0.89 | 0.83 | 92 | 1009.9 |
| 20260504140227 | 54 | 317 | 2.0 | 11.0 | 0.81 | 0.87 | 0.81 | 91 | 1009.6 |
| 20260504130725 | 67 | 0 | 0.0 | 3.0 | 0.00 | 0.06 | 0.00 | 71 | 1008.8 |
| 20260504130224 | 67 | 83 | 1.0 | 3.0 | 0.00 | 0.06 | 0.00 | 71 | 1008.9 |
| 20260504120224 | 70 | 266 | 1.0 | 2.0 | 0.00 | 0.06 | 0.00 | 66 | 1009.8 |
| 20260504110721 | 70 | 289 | 1.0 | 5.0 | 0.00 | 0.06 | 0.00 | 66 | 1010.5 |
| 20260504110528 | 69 | 123 | 2.0 | 5.0 | 0.00 | 0.06 | 0.00 | 67 | 1010.5 |
| 20260504100220 | 69 | 282 | 2.0 | 4.0 | 0.00 | 0.06 | 0.00 | 69 | 1011.1 |
| 20260504081218 | 61 | 90 | 1.0 | 4.0 | 0.00 | 0.06 | 0.00 | 92 | 1011.8 |
| 20260504080717 | 61 | 99 | 2.0 | 4.0 | 0.00 | 0.06 | 0.00 | 94 | 1011.9 |
| 20260504080217 | 60 | 87 | 1.0 | 3.0 | 0.00 | 0.06 | 0.00 | 96 | 1011.8 |
| 20260504070217 | 57 | 94 | 0.0 | 2.0 | 0.00 | 0.06 | 0.00 | 96 | 1011.8 |
| 20260504050724 | 56 | 99 | 0.0 | 0.0 | 0.00 | 0.06 | 0.00 | 94 | 1011.2 |
| 20260504050522 | 56 | 99 | 0.0 | 0.0 | 0.00 | 0.06 | 0.00 | 95 | 1011.2 |
| 20260504050018 | 56 | 99 | 0.0 | 0.0 | 0.00 | 0.06 | 0.00 | 95 | 1011.1 |
| 20260504045212 | 56 | 99 | 0.0 | 0.0 | 0.00 | 0.06 | 0.00 | 95 | 1011.1 |
| 20260504044714 | 56 | 99 | 0.0 | 0.0 | 0.00 | 0.06 | 0.00 | 95 | 1011.1 |
| 20260504044213 | 56 | 99 | 0.0 | 0.0 | 0.00 | 0.06 | 0.00 | 94 | 1011.2 |
| 20260504043712 | 56 | 99 | 0.0 | 0.0 | 0.00 | 0.06 | 0.00 | 94 | 1011.2 |
| 20260504043212 | 56 | 99 | 0.0 | 0.0 | 0.00 | 0.06 | 0.00 | 94 | 1011.2 |
| 20260504042709 | 56 | 99 | 0.0 | 1.0 | 0.00 | 0.06 | 0.00 | 94 | 1011.1 |
| 20260504042519 | 56 | 99 | 0.0 | 1.0 | 0.00 | 0.06 | 0.00 | 94 | 1010.9 |
| 20260504041711 | 56 | 99 | 0.0 | 0.0 | 0.00 | 0.06 | 0.00 | 94 | 1011.0 |
| 20260504041212 | 56 | 99 | 0.0 | 0.0 | 0.00 | 0.06 | 0.00 | 94 | 1011.1 |
| 20260504040711 | 56 | 99 | 0.0 | 1.0 | 0.00 | 0.06 | 0.00 | 94 | 1011.1 |
| 20260504040213 | 56 | 99 | 0.0 | 2.0 | 0.00 | 0.06 | 0.00 | 94 | 1010.8 |
| 20260504035712 | 56 | 99 | 1.0 | 2.0 | 0.00 | 0.06 | 0.00 | 94 | 1010.7 |
| 20260504035515 | 56 | 106 | 0.0 | 1.0 | 0.00 | 0.06 | 0.00 | 94 | 1010.8 |
| 20260504034711 | 56 | 113 | 0.0 | 0.0 | 0.00 | 0.06 | 0.00 | 94 | 1010.8 |
| 20260504034211 | 56 | 113 | 0.0 | 1.0 | 0.00 | 0.06 | 0.00 | 94 | 1010.9 |
| 20260504034018 | 56 | 113 | 0.0 | 1.0 | 0.00 | 0.06 | 0.00 | 94 | 1010.8 |
| 20260504033210 | 56 | 113 | 0.0 | 0.0 | 0.00 | 0.06 | 0.00 | 94 | 1010.8 |
| 20260504032711 | 56 | 113 | 0.0 | 0.0 | 0.00 | 0.06 | 0.00 | 94 | 1010.9 |
| 20260504032210 | 56 | 113 | 0.0 | 1.0 | 0.00 | 0.06 | 0.00 | 94 | 1010.9 |
| 20260504031713 | 56 | 113 | 0.0 | 1.0 | 0.00 | 0.06 | 0.00 | 94 | 1010.9 |
| 20260504031211 | 56 | 113 | 0.0 | 0.0 | 0.00 | 0.06 | 0.00 | 94 | 1010.8 |
| 20260504031021 | 56 | 113 | 0.0 | 0.0 | 0.00 | 0.06 | 0.00 | 94 | 1010.8 |
| 20260504030209 | 56 | 113 | 0.0 | 0.0 | 0.00 | 0.06 | 0.00 | 94 | 1010.9 |
| 20260504030036 | 56 | 113 | 0.0 | 0.0 | 0.00 | 0.06 | 0.00 | 94 | 1010.7 |
| 20260504025517 | 56 | 113 | 0.0 | 1.0 | 0.00 | 0.06 | 0.00 | 94 | 1010.6 |
| 20260504024709 | 56 | 113 | 0.0 | 1.0 | 0.00 | 0.06 | 0.00 | 94 | 1010.6 |
| 20260504024212 | 56 | 107 | 1.0 | 1.0 | 0.00 | 0.06 | 0.00 | 94 | 1010.5 |
| 20260504023709 | 56 | 120 | 0.0 | 2.0 | 0.00 | 0.06 | 0.00 | 94 | 1010.5 |
| 20260504023210 | 56 | 110 | 0.0 | 3.0 | 0.00 | 0.06 | 0.00 | 94 | 1010.5 |
| 20260504022709 | 56 | 100 | 1.0 | 3.0 | 0.00 | 0.06 | 0.00 | 94 | 1010.4 |
| 20260504022208 | 56 | 100 | 1.0 | 4.0 | 0.00 | 0.06 | 0.00 | 94 | 1010.4 |
| 20260504021710 | 56 | 85 | 2.0 | 4.0 | 0.00 | 0.06 | 0.00 | 94 | 1010.5 |
| 20260504021209 | 56 | 109 | 1.0 | 3.0 | 0.00 | 0.06 | 0.00 | 95 | 1010.5 |
| 20260504020709 | 56 | 116 | 2.0 | 3.0 | 0.00 | 0.06 | 0.00 | 95 | 1010.3 |
| 20260504020519 | 56 | 102 | 0.0 | 3.0 | 0.00 | 0.06 | 0.00 | 95 | 1010.3 |
| 20260504020016 | 56 | 116 | 0.0 | 3.0 | 0.00 | 0.06 | 0.00 | 95 | 1010.3 |
| 20260504015209 | 56 | 100 | 1.0 | 5.0 | 0.00 | 0.06 | 0.00 | 95 | 1010.2 |
| 20260504015021 | 56 | 90 | 1.0 | 5.0 | 0.00 | 0.06 | 0.00 | 95 | 1010.3 |
| 20260504014208 | 56 | 104 | 0.0 | 1.0 | 0.00 | 0.06 | 0.00 | 95 | 1010.2 |
| 20260504013709 | 56 | 103 | 1.0 | 1.0 | 0.00 | 0.06 | 0.00 | 95 | 1010.2 |
| 20260504013206 | 56 | 103 | 0.0 | 0.0 | 0.00 | 0.06 | 0.00 | 95 | 1010.3 |
| 20260504012707 | 56 | 103 | 0.0 | 0.0 | 0.00 | 0.06 | 0.00 | 95 | 1010.3 |
| 20260504012209 | 56 | 103 | 0.0 | 0.0 | 0.00 | 0.06 | 0.00 | 95 | 1010.3 |
| 20260504011708 | 56 | 103 | 0.0 | 0.0 | 0.00 | 0.06 | 0.00 | 95 | 1010.4 |
| 20260504011208 | 56 | 103 | 0.0 | 0.0 | 0.00 | 0.06 | 0.00 | 95 | 1010.4 |
| 20260504010707 | 56 | 103 | 0.0 | 0.0 | 0.00 | 0.06 | 0.00 | 95 | 1010.3 |
| 20260504010207 | 56 | 103 | 0.0 | 0.0 | 0.00 | 0.06 | 0.00 | 95 | 1010.4 |
| 20260504005706 | 56 | 103 | 0.0 | 0.0 | 0.00 | 0.06 | 0.00 | 95 | 1010.4 |
| 20260504005204 | 56 | 103 | 0.0 | 0.0 | 0.00 | 0.06 | 0.00 | 95 | 1010.6 |
| 20260504004708 | 56 | 103 | 0.0 | 0.0 | 0.00 | 0.06 | 0.00 | 95 | 1010.7 |
| 20260504004207 | 56 | 103 | 0.0 | 0.0 | 0.00 | 0.06 | 0.00 | 94 | 1010.8 |
| 20260504003708 | 56 | 103 | 0.0 | 1.0 | 0.00 | 0.06 | 0.00 | 94 | 1010.7 |
| 20260504003206 | 56 | 103 | 0.0 | 1.0 | 0.00 | 0.06 | 0.00 | 95 | 1010.5 |
| 20260504002709 | 56 | 103 | 0.0 | 1.0 | 0.00 | 0.06 | 0.00 | 94 | 1010.6 |
| 20260504002206 | 56 | 103 | 0.0 | 1.0 | 0.00 | 0.06 | 0.00 | 94 | 1010.6 |
| 20260504001706 | 56 | 103 | 0.0 | 1.0 | 0.00 | 0.06 | 0.00 | 94 | 1010.6 |
| 20260504001206 | 56 | 103 | 0.0 | 1.0 | 0.00 | 0.06 | 0.00 | 94 | 1010.4 |
| 20260504000707 | 56 | 103 | 0.0 | 1.0 | 0.00 | 0.06 | 0.00 | 94 | 1010.4 |
| 20260504000220 | 56 | 103 | 0.0 | 1.0 | 0.00 | 0.06 | 0.00 | 94 | 1010.5 |
| 20260503235705 | 56 | 106 | 1.0 | 1.0 | 0.00 | 0.06 | 0.00 | 94 | 1010.5 |
| 20260503235208 | 56 | 114 | 0.0 | 1.0 | 0.00 | 0.06 | 0.00 | 94 | 1010.8 |
| 20260503234706 | 56 | 114 | 0.0 | 1.0 | 0.00 | 0.06 | 0.00 | 94 | 1010.8 |
| 20260503234217 | 56 | 114 | 0.0 | 1.0 | 0.00 | 0.06 | 0.00 | 94 | 1010.8 |
| 20260503233706 | 56 | 114 | 0.0 | 1.0 | 0.00 | 0.06 | 0.00 | 94 | 1010.9 |
| 20260503233517 | 57 | 114 | 0.0 | 0.0 | 0.00 | 0.06 | 0.00 | 94 | 1010.7 |
| 20260503232704 | 57 | 114 | 0.0 | 1.0 | 0.00 | 0.06 | 0.00 | 94 | 1010.8 |
| 20260503232204 | 57 | 113 | 0.0 | 1.0 | 0.00 | 0.06 | 0.00 | 94 | 1010.9 |
| 20260503232012 | 57 | 114 | 0.0 | 1.0 | 0.00 | 0.06 | 0.00 | 94 | 1010.8 |
| 20260503231206 | 57 | 114 | 0.0 | 1.0 | 0.00 | 0.06 | 0.00 | 94 | 1010.8 |
| 20260503230815 | 57 | 114 | 0.0 | 1.0 | 0.00 | 0.06 | 0.00 | 94 | 1010.8 |
| 20260503225704 | 57 | 103 | 0.0 | 1.0 | 0.00 | 0.06 | 0.00 | 94 | 1010.8 |
| 20260503225204 | 57 | 103 | 0.0 | 1.0 | 0.00 | 0.06 | 0.00 | 94 | 1010.9 |
| 20260503224702 | 57 | 103 | 0.0 | 1.0 | 0.00 | 0.06 | 0.00 | 94 | 1010.9 |
| 20260503224517 | 57 | 103 | 0.0 | 0.0 | 0.00 | 0.06 | 0.00 | 94 | 1010.9 |
| 20260503223705 | 57 | 103 | 0.0 | 0.0 | 0.00 | 0.06 | 0.00 | 94 | 1011.0 |
| 20260503223206 | 57 | 103 | 0.0 | 0.0 | 0.00 | 0.06 | 0.00 | 94 | 1010.9 |
| 20260503223018 | 57 | 103 | 0.0 | 0.0 | 0.00 | 0.06 | 0.00 | 94 | 1010.9 |
| 20260503222207 | 57 | 103 | 0.0 | 0.0 | 0.00 | 0.06 | 0.00 | 94 | 1011.1 |
| 20260503221704 | 57 | 103 | 0.0 | 0.0 | 0.00 | 0.06 | 0.00 | 94 | 1011.2 |
| 20260503221204 | 57 | 103 | 0.0 | 0.0 | 0.00 | 0.06 | 0.00 | 94 | 1011.2 |
| 20260503220703 | 57 | 103 | 0.0 | 0.0 | 0.00 | 0.06 | 0.00 | 94 | 1011.2 |
| 20260503220204 | 57 | 103 | 0.0 | 0.0 | 0.00 | 0.06 | 0.00 | 94 | 1011.3 |
| 20260503215705 | 57 | 103 | 0.0 | 0.0 | 0.00 | 0.06 | 0.06 | 93 | 1011.3 |
| 20260503215203 | 57 | 103 | 0.0 | 0.0 | 0.00 | 0.06 | 0.06 | 93 | 1011.3 |
| 20260503214705 | 57 | 103 | 0.0 | 0.0 | 0.00 | 0.06 | 0.06 | 93 | 1011.3 |
| 20260503214203 | 57 | 103 | 0.0 | 0.0 | 0.00 | 0.06 | 0.06 | 93 | 1011.3 |
| 20260503213709 | 57 | 103 | 0.0 | 1.0 | 0.00 | 0.06 | 0.06 | 93 | 1011.3 |
| 20260503213204 | 57 | 103 | 0.0 | 1.0 | 0.00 | 0.06 | 0.06 | 93 | 1011.2 |
| 20260503212703 | 58 | 103 | 0.0 | 1.0 | 0.00 | 0.06 | 0.06 | 93 | 1011.2 |
| 20260503212406 | 58 | 103 | 0.0 | 1.0 | 0.01 | 0.06 | 0.06 | 93 | 1011.1 |
| 20260503212315 | 58 | 103 | 0.0 | 1.0 | 0.00 | 0.06 | 0.06 | 93 | 1011.1 |
| 20260503211205 | 58 | 103 | 0.0 | 2.0 | 0.02 | 0.06 | 0.06 | 93 | 1011.3 |
| 20260503210707 | 58 | 111 | 0.0 | 3.0 | 0.03 | 0.06 | 0.06 | 93 | 1011.2 |
| 20260503210205 | 58 | 93 | 1.0 | 4.0 | 0.04 | 0.06 | 0.06 | 93 | 1011.1 |
| 20260503205703 | 58 | 113 | 1.0 | 4.0 | 0.05 | 0.06 | 0.06 | 93 | 1011.0 |
| 20260503205206 | 58 | 113 | 2.0 | 5.0 | 0.06 | 0.06 | 0.06 | 93 | 1011.0 |
| 20260503204702 | 58 | 111 | 2.0 | 5.0 | 0.06 | 0.06 | 0.06 | 93 | 1010.9 |
| 20260503204159 | 58 | 116 | 3.0 | 4.0 | 0.06 | 0.06 | 0.06 | 93 | 1011.0 |
| 20260503204035 | 58 | 89 | 1.0 | 1.0 | 0.06 | 0.06 | 0.06 | 92 | 1011.1 |
| 20260503203201 | 58 | 92 | 0.0 | 1.0 | 0.06 | 0.06 | 0.06 | 92 | 1011.1 |
| 20260503203029 | 58 | 62 | 0.0 | 1.0 | 0.06 | 0.06 | 0.06 | 92 | 1011.2 |
| 20260503202202 | 58 | 62 | 0.0 | 1.0 | 0.06 | 0.06 | 0.06 | 92 | 1011.1 |
| 20260503202035 | 58 | 62 | 0.0 | 1.0 | 0.05 | 0.06 | 0.06 | 91 | 1011.1 |
| 20260503201203 | 58 | 62 | 0.0 | 1.0 | 0.03 | 0.04 | 0.04 | 91 | 1011.1 |
| 20260503201025 | 59 | 341 | 0.0 | 1.0 | 0.03 | 0.03 | 0.03 | 91 | 1011.2 |
| 20260503200531 | 59 | 341 | 1.0 | 1.0 | 0.02 | 0.02 | 0.02 | 90 | 1011.3 |
| 20260503195658 | 59 | 61 | 0.0 | 1.0 | 0.02 | 0.02 | 0.02 | 90 | 1011.2 |
| 20260503195200 | 59 | 113 | 0.0 | 2.0 | 0.01 | 0.01 | 0.01 | 89 | 1011.1 |
| 20260503194702 | 59 | 288 | 0.0 | 2.0 | 0.01 | 0.01 | 0.01 | 89 | 1011.1 |
| 20260503194202 | 59 | 203 | 0.0 | 1.0 | 0.01 | 0.01 | 0.01 | 88 | 1011.1 |
| 20260503194013 | 59 | 203 | 0.0 | 1.0 | 0.01 | 0.01 | 0.01 | 88 | 1011.0 |
| 20260503193202 | 59 | 203 | 0.0 | 3.0 | 0.01 | 0.01 | 0.01 | 88 | 1011.0 |
| 20260503192701 | 60 | 199 | 0.0 | 5.0 | 0.01 | 0.01 | 0.01 | 87 | 1010.9 |
| 20260503192539 | 60 | 109 | 2.0 | 7.0 | 0.01 | 0.01 | 0.01 | 87 | 1010.7 |
| 20260503191701 | 60 | 113 | 3.0 | 7.0 | 0.01 | 0.01 | 0.01 | 87 | 1010.3 |
| 20260503191157 | 60 | 107 | 3.0 | 9.0 | 0.01 | 0.01 | 0.01 | 87 | 1010.2 |
| 20260503190700 | 60 | 99 | 4.0 | 10.0 | 0.00 | 0.00 | 0.00 | 86 | 1010.1 |
| 20260503190159 | 60 | 113 | 6.0 | 11.0 | 0.00 | 0.00 | 0.00 | 85 | 1010.1 |
| 20260503185705 | 60 | 97 | 7.0 | 11.0 | 0.00 | 0.00 | 0.00 | 84 | 1010.2 |
| 20260503185200 | 61 | 96 | 4.0 | 11.0 | 0.00 | 0.00 | 0.00 | 84 | 1010.2 |
| 20260503184702 | 61 | 110 | 6.0 | 11.0 | 0.00 | 0.00 | 0.00 | 83 | 1010.1 |
| 20260503184200 | 61 | 93 | 3.0 | 14.0 | 0.00 | 0.00 | 0.00 | 83 | 1010.1 |
| 20260503183700 | 61 | 104 | 5.0 | 14.0 | 0.00 | 0.00 | 0.00 | 83 | 1010.0 |
| 20260503183536 | 61 | 92 | 5.0 | 12.0 | 0.00 | 0.00 | 0.00 | 83 | 1009.9 |
| 20260503182658 | 61 | 117 | 6.0 | 12.0 | 0.00 | 0.00 | 0.00 | 83 | 1009.9 |
| 20260503182405 | 61 | 125 | 6.0 | 13.0 | 0.00 | 0.00 | 0.00 | 83 | 1010.0 |
| 20260503182317 | 61 | 128 | 6.0 | 12.0 | 0.00 | 0.00 | 0.00 | 83 | 1009.9 |
| 20260503181202 | 61 | 80 | 6.0 | 17.0 | 0.00 | 0.00 | 0.00 | 83 | 1010.0 |
| 20260503180659 | 61 | 102 | 8.0 | 17.0 | 0.00 | 0.00 | 0.00 | 82 | 1009.9 |
| 20260503180530 | 61 | 83 | 6.0 | 12.0 | 0.00 | 0.00 | 0.00 | 83 | 1009.8 |
| 20260503175659 | 61 | 107 | 6.0 | 16.0 | 0.00 | 0.00 | 0.00 | 83 | 1009.8 |
| 20260503175158 | 61 | 104 | 9.0 | 16.0 | 0.00 | 0.00 | 0.00 | 82 | 1009.7 |
| 20260503174657 | 61 | 82 | 8.0 | 16.0 | 0.00 | 0.00 | 0.00 | 82 | 1009.6 |
| 20260503174155 | 61 | 121 | 6.0 | 13.0 | 0.00 | 0.00 | 0.00 | 82 | 1009.7 |